Regional Weather Roundup
Issued by NWS

Home | Current Version | Previous Version | Text Only | Print | Product List | Glossary On
Versions: 1 2 3 4 5 6 7 8 9 10 11 12 13 14 15 16 17 18 19 20 21 22 23 24 25 26 27
000
ASUS42 KKEY 292010
RWRKEY

FLORIDA REGIONAL WEATHER ROUNDUP FOR THE FLORIDA KEYS
NATIONAL WEATHER SERVICE KEY WEST FLORIDA
400 PM EDT THU SEP 29 2016

...SOUTH FLORIDA AND THE KEYS...

CITY           SKY/WX    TMP DP  RH WIND       PRES   REMARKS
FORT MYERS     PTSUNNY   86  73  65 SW10      30.01F HX  93
SW REGIONAL AP CLOUDY    86  72  62 SW10      30.02F HX  92
NAPLES         MOSUNNY   87  75  67 W10       30.02F HX  96
MIAMI          CLOUDY    86  72  62 SE13      30.03R THUNDER HX  92
WEST KENDALL   PTSUNNY   90  70  51 VRB5      30.02S HX  95
HOMESTEAD      SUNNY     90  72  55 SW7       30.02S HX  97
MARATHON       PTSUNNY   86  75  69 SW3       30.02F HX  95
BOCA CHICA NAS PTSUNNY   87  72  60 S7        30.03F HX  93
KEY WEST INTL  CLOUDY    86  73  65 S5        30.03F HX  93

...INTERNATIONAL WEATHER...

CITY           SKY/WX    TMP DP  RH WIND       PRES   REMARKS
NASSAU BAHAMAS LGT RAIN  88  73  62 NE3       30.05F HX  96
CANCUN MEXICO  PTSUNNY   88  77  70 E12       30.03F HX 100
COZUMEL MEXICO PTSUNNY   88  79  74 MISG      30.02F HX 102

ADJACENT COASTAL WATERS...

STATION/POSITION TIME  SKY/WX   TEMP    WIND        PRES    WAVE
                                AIR SEA DIR/SP/G            HT/PER
                 (UTC)          (F)     (DEG/KT/KT) (MB)    (FT/S)
PULASKI SHOAL LI 2000            86     270/  1/  2 1017.3F
SAND KEY         1950            85      CALM  /  1 1017.7F
LONG KEY         1900            87 87  340/  2/  2 1017.9F
FOWEY ROCKS      1900            85 85  170/  9/ 10 1017.5F

$$




USA.gov is the U.S. government's official web portal to all federal, state and local government web resources and services.